Time[GMT],current_speed[cm/s](2m),current_direction[angular_degrees](2m),temperature[C](2m),current_u[cm/s](2m),current_v[cm/s](2m)
2005-01-05 21:00,20.53,258.6,5.74,-20.13,-4.06
2005-01-05 22:00,18.77,254.0,5.74,-18.05,-5.16
2005-01-05 23:00,10.27,271.6,5.74,-10.26,0.29
2005-01-06 00:00,3.23,297.3,5.74,-2.87,1.48
2005-01-06 01:00,5.57,304.0,5.74,-4.62,3.11
2005-01-06 02:00,0.29,72.6,5.74,0.28,0.09
2005-01-06 03:00,8.51,110.6,5.78,7.96,-2.99
2005-01-06 04:00,6.45,131.7,5.78,4.82,-4.29
2005-01-06 05:00,5.87,188.3,5.74,-0.84,-5.80
2005-01-06 06:00,14.37,233.3,5.74,-11.52,-8.59
2005-01-06 07:00,20.82,244.2,5.78,-18.75,-9.07
2005-01-06 08:00,25.22,241.4,5.74,-22.14,-12.09
2005-01-06 09:00,20.24,251.6,5.78,-19.20,-6.40
2005-01-06 10:00,27.28,251.2,5.74,-25.82,-8.78
2005-01-06 11:00,27.86,248.1,5.65,-25.84,-10.41
2005-01-06 12:00,22.29,263.5,5.61,-22.15,-2.51
2005-01-06 13:00,17.89,292.7,5.61,-16.50,6.91
2005-01-06 14:00,14.96,295.5,5.65,-13.50,6.44
2005-01-06 15:00,12.03,310.3,5.71,-9.17,7.78
2005-01-06 16:00,7.63,13.2,5.74,1.74,7.42
2005-01-06 17:00,9.39,302.9,5.74,-7.88,5.10
2005-01-06 18:00,8.80,300.1,5.71,-7.61,4.41
2005-01-06 19:00,8.21,264.2,5.68,-8.17,-0.83
2005-01-06 20:00,11.44,254.7,5.71,-11.03,-3.01
2005-01-06 21:00,15.54,282.2,5.71,-15.20,3.27
2005-01-06 22:00,19.94,270.6,5.68,-19.94,0.19
2005-01-06 23:00,17.60,278.6,5.68,-17.40,2.64
2005-01-07 00:00,10.56,311.3,5.65,-7.93,6.97
2005-01-07 01:00,6.16,270.9,5.68,-6.16,0.10
2005-01-07 02:00,2.93,314.5,5.65,-2.09,2.06
2005-01-07 03:00,3.23,116.9,5.65,2.88,-1.46
2005-01-07 04:00,10.27,121.8,5.65,8.72,-5.41
2005-01-07 05:00,5.57,77.5,5.65,5.44,1.20
2005-01-07 06:00,3.81,195.3,5.65,-1.01,-3.68
2005-01-07 07:00,8.80,223.8,5.61,-6.09,-6.35
2005-01-07 08:00,12.32,237.2,5.61,-10.35,-6.68
2005-01-07 09:00,18.18,252.3,5.61,-17.32,-5.54
2005-01-07 10:00,17.01,236.1,5.65,-14.12,-9.49
2005-01-07 11:00,22.88,260.7,5.58,-22.58,-3.69
2005-01-07 12:00,7.92,241.7,5.58,-6.97,-3.75
2005-01-07 13:00,2.93,155.2,5.58,1.23,-2.66
2005-01-07 14:00,14.96,116.2,5.61,13.42,-6.60
2005-01-07 15:00,18.48,124.3,5.61,15.27,-10.41
2005-01-07 16:00,15.84,125.3,5.61,12.92,-9.16
2005-01-07 17:00,9.97,121.1,5.65,8.54,-5.15
2005-01-07 18:00,20.82,146.1,5.65,11.62,-17.28
2005-01-07 19:00,15.54,167.2,5.65,3.45,-15.16
2005-01-07 20:00,18.77,200.6,5.65,-6.60,-17.57
2005-01-07 21:00,21.70,221.0,5.61,-14.23,-16.39
2005-01-07 22:00,29.04,236.1,5.61,-24.10,-16.20
2005-01-07 23:00,26.40,229.8,5.61,-20.15,-17.05
2005-01-08 00:00,19.94,233.6,5.55,-16.06,-11.83
2005-01-08 01:00,20.24,217.8,5.52,-12.41,-15.99
2005-01-08 02:00,19.36,221.7,5.36,-12.87,-14.46
2005-01-08 03:00,17.30,231.9,5.29,-13.61,-10.68
2005-01-08 04:00,4.11,266.3,5.36,-4.10,-0.26
2005-01-08 05:00,9.39,42.7,5.42,6.37,6.90
2005-01-08 06:00,13.49,45.9,5.45,9.69,9.39
2005-01-08 07:00,8.21,46.2,5.42,5.93,5.68
2005-01-08 08:00,2.93,45.5,5.49,2.09,2.05
2005-01-08 09:00,6.16,249.8,5.45,-5.78,-2.13
2005-01-08 10:00,8.80,235.7,5.45,-7.27,-4.95
2005-01-08 11:00,19.06,247.3,5.36,-17.59,-7.34
2005-01-08 12:00,15.84,245.2,5.32,-14.38,-6.63
2005-01-08 13:00,11.44,240.3,5.36,-9.94,-5.66
2005-01-08 14:00,4.69,241.4,5.36,-4.12,-2.25
2005-01-08 15:00,8.21,205.9,5.23,-3.58,-7.39
2005-01-08 16:00,4.11,115.8,5.29,3.70,-1.79
2005-01-08 17:00,4.40,39.6,5.29,2.80,3.39
2005-01-08 18:00,7.63,60.3,5.29,6.62,3.78
2005-01-08 19:00,7.33,11.8,5.19,1.50,7.18
2005-01-08 20:00,2.64,302.2,5.26,-2.23,1.41
2005-01-08 21:00,12.32,281.8,5.23,-12.06,2.52
2005-01-08 22:00,11.44,247.0,5.29,-10.53,-4.47
2005-01-08 23:00,24.64,236.4,5.26,-20.53,-13.62
2005-01-09 00:00,31.97,238.2,5.16,-27.17,-16.84
2005-01-09 01:00,29.92,237.2,5.16,-25.13,-16.23
2005-01-09 02:00,23.46,224.1,5.23,-16.34,-16.84
2005-01-09 03:00,17.89,204.8,5.26,-7.51,-16.24
2005-01-09 04:00,12.61,159.4,5.32,4.43,-11.81
2005-01-09 05:00,15.54,137.6,5.32,10.47,-11.49
2005-01-09 06:00,7.33,184.8,5.32,-0.61,-7.31
2005-01-09 07:00,24.05,194.3,5.29,-5.92,-23.31
2005-01-09 08:00,16.42,206.9,5.32,-7.43,-14.65
2005-01-09 09:00,21.41,218.5,5.32,-13.33,-16.75
2005-01-09 10:00,39.60,234.7,5.23,-32.31,-22.89
2005-01-09 11:00,30.80,248.4,5.36,-28.63,-11.34
2005-01-09 12:00,33.14,253.3,5.32,-31.75,-9.51
2005-01-09 13:00,30.80,240.3,5.32,-26.76,-15.25
2005-01-09 14:00,25.22,248.8,5.39,-23.51,-9.14
2005-01-09 15:00,19.06,267.4,5.36,-19.04,-0.87
2005-01-09 16:00,3.23,212.2,5.39,-1.72,-2.73
2005-01-09 17:00,2.93,93.0,5.42,2.93,-0.15
2005-01-09 18:00,3.23,109.2,5.42,3.05,-1.06
2005-01-09 19:00,10.56,82.1,5.42,10.46,1.45
2005-01-09 20:00,11.15,78.2,5.39,10.91,2.27
2005-01-09 21:00,4.11,137.6,5.42,2.77,-3.03
2005-01-09 22:00,11.73,207.6,5.42,-5.44,-10.40
2005-01-09 23:00,60.13,254.7,4.74,-58.00,-15.83
2005-01-10 00:00,57.49,257.2,4.97,-56.06,-12.74
2005-01-10 01:00,51.62,262.8,4.93,-51.22,-6.45
2005-01-10 02:00,51.62,261.4,4.74,-51.04,-7.71
2005-01-10 03:00,40.18,268.4,4.71,-40.17,-1.09
2005-01-10 04:00,31.38,285.3,4.74,-30.27,8.29
2005-01-10 05:00,22.58,292.0,4.77,-20.94,8.46
2005-01-10 06:00,19.65,318.0,4.80,-13.14,14.61
2005-01-10 07:00,21.41,348.9,4.80,-4.11,21.01
2005-01-10 08:00,17.30,343.0,4.87,-5.06,16.55
2005-01-10 09:00,17.30,328.2,4.84,-9.11,14.71
2005-01-10 10:00,23.76,302.5,4.93,-20.03,12.78
2005-01-10 11:00,29.04,298.0,5.03,-25.64,13.62
2005-01-10 12:00,26.10,293.4,5.03,-23.96,10.37
2005-01-10 13:00,23.76,285.7,5.06,-22.87,6.42
2005-01-10 14:00,17.60,281.1,5.10,-17.27,3.39
2005-01-10 15:00,10.85,296.6,5.06,-9.71,4.85
2005-01-10 16:00,8.80,17.8,5.10,2.68,8.38
2005-01-10 17:00,13.20,86.0,5.13,13.17,0.93
2005-01-10 18:00,22.58,84.2,5.16,22.47,2.28
2005-01-10 19:00,30.50,69.1,5.19,28.49,10.89
2005-01-10 20:00,25.22,82.8,5.26,25.02,3.16
2005-01-10 21:00,22.58,75.1,5.29,21.82,5.82
2005-01-10 22:00,4.69,100.0,5.32,4.62,-0.82
2005-01-10 23:00,4.40,247.7,5.32,-4.07,-1.67
2005-01-11 00:00,6.75,218.9,5.29,-4.23,-5.25
2005-01-11 01:00,17.30,225.5,5.32,-12.35,-12.12
2005-01-11 02:00,22.88,219.2,5.26,-14.47,-17.72
2005-01-11 03:00,22.58,212.5,5.23,-12.15,-19.04
2005-01-11 04:00,14.08,221.0,5.19,-9.23,-10.63
2005-01-11 05:00,12.61,192.5,5.19,-2.73,-12.31
2005-01-11 06:00,5.87,116.2,5.19,5.26,-2.59
2005-01-11 07:00,10.85,96.9,5.19,10.77,-1.30
2005-01-11 08:00,19.06,83.2,5.19,18.93,2.27
2005-01-11 09:00,12.61,57.5,5.16,10.63,6.78
2005-01-11 10:00,5.87,110.6,5.16,5.49,-2.06
2005-01-11 11:00,5.28,236.4,5.13,-4.40,-2.92
2005-01-11 12:00,7.04,226.6,5.10,-5.11,-4.84
2005-01-11 13:00,11.73,251.9,5.10,-11.15,-3.64
2005-01-11 14:00,19.06,230.5,5.06,-14.70,-12.13
2005-01-11 15:00,19.94,236.1,5.10,-16.55,-11.12
2005-01-11 16:00,9.97,204.8,5.16,-4.18,-9.05
2005-01-11 17:00,4.99,144.7,5.16,2.88,-4.07
2005-01-11 18:00,13.49,90.5,5.13,13.49,-0.13
2005-01-11 19:00,17.89,86.3,5.10,17.85,1.15
2005-01-11 20:00,19.06,67.3,5.10,17.59,7.35
2005-01-11 21:00,23.76,61.0,5.06,20.78,11.52
2005-01-11 22:00,20.82,57.1,5.03,17.49,11.30
2005-01-11 23:00,12.03,36.4,5.00,7.13,9.68
2005-01-12 00:00,4.40,36.4,4.97,2.61,3.54
2005-01-12 01:00,4.40,9.3,4.93,0.71,4.34
2005-01-12 02:00,9.97,270.9,4.97,-9.97,0.16
2005-01-12 03:00,13.79,279.3,5.00,-13.60,2.24
2005-01-12 04:00,4.99,289.9,5.00,-4.69,1.70
2005-01-12 05:00,5.28,14.2,5.03,1.30,5.12
2005-01-12 06:00,10.56,45.5,5.00,7.53,7.40
2005-01-12 07:00,14.66,63.1,5.00,13.08,6.63
2005-01-12 08:00,13.49,50.8,4.93,10.46,8.53
2005-01-12 09:00,15.54,40.6,4.97,10.12,11.80
2005-01-12 10:00,15.84,20.6,4.97,5.56,14.83
2005-01-12 11:00,15.25,326.5,5.00,-8.43,12.71
2005-01-12 12:00,17.89,299.7,5.03,-15.54,8.87
2005-01-12 13:00,21.70,291.3,5.03,-20.22,7.88
2005-01-12 14:00,26.40,290.2,5.00,-24.77,9.13
2005-01-12 15:00,25.22,280.8,5.03,-24.78,4.71
2005-01-12 16:00,19.36,281.5,5.06,-18.97,3.84
2005-01-12 17:00,18.48,280.4,5.10,-18.17,3.34
2005-01-12 18:00,15.25,322.2,5.10,-9.34,12.06
2005-01-12 19:00,10.27,356.3,5.10,-0.66,10.24
2005-01-12 20:00,12.32,1.9,5.10,0.42,12.31
2005-01-12 21:00,18.48,32.9,5.16,10.03,15.52
2005-01-12 22:00,16.72,37.1,5.19,10.08,13.34
2005-01-12 23:00,6.16,74.0,5.19,5.92,1.70
2005-01-13 00:00,5.57,304.3,5.19,-4.60,3.14
2005-01-13 01:00,11.15,249.8,5.19,-10.46,-3.85
2005-01-13 02:00,15.25,264.2,5.23,-15.17,-1.53
2005-01-13 03:00,29.04,261.8,5.19,-28.74,-4.16
2005-01-13 04:00,20.82,245.9,5.19,-19.02,-8.49
2005-01-13 05:00,25.22,238.2,5.16,-21.44,-13.29
2005-01-13 06:00,23.46,220.6,5.13,-15.28,-17.81
2005-01-13 07:00,20.24,208.3,5.13,-9.60,-17.82
2005-01-13 08:00,19.06,193.6,5.10,-4.47,-18.53
2005-01-13 09:00,9.39,166.1,5.10,2.25,-9.11
2005-01-13 10:00,11.15,164.0,5.10,3.07,-10.71
2005-01-13 11:00,6.45,216.8,5.10,-3.86,-5.17
2005-01-13 12:00,14.66,249.1,5.10,-13.70,-5.23
2005-01-13 13:00,26.40,248.8,5.06,-24.60,-9.57
2005-01-13 14:00,27.57,264.9,5.06,-27.46,-2.44
2005-01-13 15:00,27.28,276.5,5.06,-27.10,3.10
2005-01-13 16:00,22.00,279.7,5.06,-21.68,3.70
2005-01-13 17:00,16.42,280.4,5.10,-16.16,2.96
2005-01-13 18:00,9.68,331.7,5.10,-4.58,8.52
2005-01-13 19:00,10.56,32.9,5.10,5.73,8.87
2005-01-13 20:00,15.84,74.7,5.13,15.28,4.18
2005-01-13 21:00,22.58,81.4,5.13,22.33,3.38
2005-01-13 22:00,22.88,94.4,5.13,22.81,-1.76
2005-01-13 23:00,16.42,94.8,5.13,16.37,-1.36
2005-01-14 00:00,12.91,87.0,5.13,12.89,0.67
2005-01-14 01:00,7.63,204.5,5.13,-3.16,-6.94
2005-01-14 02:00,10.56,245.9,5.13,-9.64,-4.30
2005-01-14 03:00,15.54,254.0,5.13,-14.94,-4.28
2005-01-14 04:00,18.18,253.3,5.13,-17.42,-5.22
2005-01-14 05:00,21.41,239.6,5.13,-18.47,-10.83
2005-01-14 06:00,11.44,241.7,5.13,-10.07,-5.42
2005-01-14 07:00,4.99,32.9,5.10,2.71,4.19
2005-01-14 08:00,10.85,88.8,5.13,10.85,0.23
2005-01-14 09:00,14.37,50.5,5.16,11.08,9.15
2005-01-14 10:00,26.98,57.1,5.19,22.66,14.64
2005-01-14 11:00,29.33,63.5,5.19,26.24,13.10
2005-01-14 12:00,24.34,68.4,5.19,22.63,8.97
2005-01-14 13:00,24.05,64.2,5.26,21.65,10.48
2005-01-14 14:00,9.09,48.0,5.29,6.76,6.08
2005-01-14 15:00,1.17,294.5,5.32,-1.07,0.49
2005-01-14 16:00,17.01,151.4,5.32,8.15,-14.93
2005-01-14 17:00,31.68,178.1,5.32,1.06,-31.66
2005-01-14 18:00,36.08,182.0,5.29,-1.23,-36.05
2005-01-14 19:00,43.41,167.9,5.16,9.11,-42.44
2005-01-14 20:00,46.93,171.1,5.13,7.30,-46.36
2005-01-14 21:00,42.53,182.0,5.16,-1.45,-42.50
2005-01-14 22:00,30.50,180.5,5.16,-0.29,-30.50
2005-01-14 23:00,20.53,179.5,5.19,0.18,-20.53
2005-01-15 00:00,9.97,180.2,5.23,-0.03,-9.97
2005-01-15 01:00,4.99,208.7,5.23,-2.39,-4.37
2005-01-15 02:00,10.27,200.2,5.23,-3.55,-9.63
2005-01-15 03:00,14.96,219.6,5.29,-9.53,-11.53
2005-01-15 04:00,12.61,219.9,5.32,-8.09,-9.67
2005-01-15 05:00,26.10,211.5,5.29,-13.63,-22.26
2005-01-15 06:00,23.46,199.9,5.36,-7.98,-22.07
2005-01-15 07:00,17.01,183.0,5.36,-0.89,-16.99
2005-01-15 08:00,17.30,159.4,5.39,6.07,-16.20
2005-01-15 09:00,14.96,147.5,5.39,8.04,-12.61
2005-01-15 10:00,26.98,140.8,5.36,17.05,-20.91
2005-01-15 11:00,24.64,129.9,5.29,18.90,-15.81
2005-01-15 12:00,17.89,118.3,5.23,15.75,-8.49
2005-01-15 13:00,17.60,126.4,5.13,14.16,-10.44
2005-01-15 14:00,9.09,167.9,5.13,1.91,-8.89
2005-01-15 15:00,8.21,210.8,5.16,-4.20,-7.06
2005-01-15 16:00,17.60,232.2,5.23,-13.91,-10.78
2005-01-15 17:00,21.12,241.7,5.29,-18.60,-10.00
2005-01-15 18:00,13.49,215.4,5.32,-7.81,-11.00
2005-01-15 19:00,9.09,237.2,5.36,-7.64,-4.93
2005-01-15 20:00,5.87,110.6,5.36,5.49,-2.06
2005-01-15 21:00,15.84,88.8,5.29,15.83,0.34
2005-01-15 22:00,17.30,84.6,5.26,17.23,1.64
2005-01-15 23:00,17.60,81.4,5.23,17.40,2.63
2005-01-16 00:00,23.46,71.5,5.16,22.26,7.43
2005-01-16 01:00,27.57,86.7,5.10,27.52,1.60
2005-01-16 02:00,27.57,112.7,4.90,25.44,-10.63
2005-01-16 03:00,23.76,131.3,4.84,17.84,-15.69
2005-01-16 04:00,18.18,153.5,4.84,8.12,-16.27
2005-01-16 05:00,23.17,159.1,4.80,8.27,-21.65
2005-01-16 06:00,23.76,178.8,4.90,0.50,-23.75
2005-01-16 07:00,21.12,229.8,5.13,-16.12,-13.64
2005-01-16 08:00,14.66,236.8,5.23,-12.27,-8.03
2005-01-16 09:00,12.61,244.2,5.26,-11.35,-5.49
2005-01-16 10:00,4.99,237.9,5.26,-4.22,-2.65
2005-01-16 11:00,6.75,169.6,5.23,1.21,-6.64
2005-01-16 12:00,12.03,103.5,5.16,11.69,-2.82
2005-01-16 13:00,5.87,79.6,5.19,5.77,1.06
2005-01-16 14:00,3.81,51.9,5.19,3.00,2.35
2005-01-16 15:00,0.88,172.5,5.16,0.12,-0.87
2005-01-16 16:00,9.68,259.0,5.19,-9.50,-1.85
2005-01-16 17:00,29.92,256.5,5.19,-29.09,-6.99
2005-01-16 18:00,24.34,264.2,5.23,-24.22,-2.45
2005-01-16 19:00,31.09,240.3,5.23,-27.01,-15.40
2005-01-16 20:00,29.62,229.4,5.26,-22.50,-19.27
2005-01-16 21:00,18.77,232.9,5.26,-14.98,-11.31
2005-01-16 22:00,15.25,199.9,5.26,-5.19,-14.34
2005-01-16 23:00,20.53,194.6,5.26,-5.18,-19.87
2005-01-17 00:00,16.72,192.5,5.23,-3.62,-16.32
2005-01-17 01:00,13.20,217.1,5.23,-7.96,-10.53
2005-01-17 02:00,16.42,250.5,5.19,-15.48,-5.48
2005-01-17 03:00,15.84,232.9,5.23,-12.64,-9.55
2005-01-17 04:00,25.52,227.0,5.19,-18.65,-17.42
2005-01-17 05:00,27.28,224.5,5.16,-19.12,-19.46
2005-01-17 06:00,40.18,208.7,5.16,-19.28,-35.25
2005-01-17 07:00,37.54,199.9,5.19,-12.77,-35.30
2005-01-17 08:00,35.78,201.6,5.26,-13.20,-33.26
2005-01-17 09:00,38.13,186.2,5.36,-4.10,-37.91
2005-01-17 10:00,36.66,158.7,5.42,13.29,-34.17
2005-01-17 11:00,38.13,157.7,5.55,14.47,-35.27
2005-01-17 12:00,35.49,143.6,5.58,21.05,-28.57
2005-01-17 13:00,35.20,143.6,5.65,20.87,-28.34
2005-01-17 14:00,35.20,145.7,5.61,19.82,-29.09
2005-01-17 15:00,51.33,202.7,5.13,-19.80,-47.35
2005-01-17 16:00,58.95,214.6,5.03,-33.52,-48.50
2005-01-17 17:00,78.60,210.1,5.03,-39.40,-68.02
2005-01-17 18:00,78.02,212.2,4.93,-41.56,-66.03
2005-01-17 19:00,83.88,207.6,4.67,-38.89,-74.33
2005-01-17 20:00,81.83,211.1,4.58,-42.31,-70.04
2005-01-17 21:00,80.95,198.5,4.58,-25.65,-76.78
2005-01-17 22:00,70.69,194.6,4.58,-17.83,-68.40
2005-01-17 23:00,64.82,195.3,4.61,-17.12,-62.52
2005-01-18 00:00,60.71,198.8,4.64,-19.59,-57.46
2005-01-18 01:00,56.90,197.1,4.54,-16.70,-54.39
2005-01-18 02:00,50.15,199.5,4.58,-16.77,-47.27
2005-01-18 03:00,46.34,200.9,4.54,-16.56,-43.28
2005-01-18 04:00,47.81,197.4,4.48,-14.31,-45.61
2005-01-18 05:00,56.31,207.3,4.32,-25.80,-50.06
2005-01-18 06:00,57.19,209.4,4.32,-28.06,-49.84
2005-01-18 07:00,48.69,201.6,4.38,-17.96,-45.26
2005-01-18 08:00,46.93,207.6,4.48,-21.75,-41.58
2005-01-18 09:00,49.27,196.0,4.48,-13.59,-47.36
2005-01-18 10:00,47.81,182.7,4.51,-2.21,-47.76
2005-01-18 11:00,55.14,168.6,4.51,10.91,-54.05
2005-01-18 12:00,52.50,164.7,4.38,13.83,-50.65
2005-01-18 13:00,47.51,161.2,4.41,15.31,-44.98
2005-01-18 14:00,48.69,148.2,4.41,25.66,-41.38
2005-01-18 15:00,34.90,155.2,4.35,14.62,-31.69
2005-01-18 16:00,37.84,162.6,4.25,11.31,-36.11
2005-01-18 17:00,28.74,180.9,4.22,-0.45,-28.74
2005-01-18 18:00,32.26,192.9,4.22,-7.18,-31.45
2005-01-18 19:00,37.54,205.2,4.19,-15.96,-33.98
2005-01-18 20:00,35.20,200.9,4.28,-12.58,-32.87
2005-01-18 21:00,35.78,201.3,4.22,-12.99,-33.34
2005-01-18 22:00,31.68,192.9,4.41,-7.05,-30.88
2005-01-18 23:00,18.48,183.7,4.41,-1.20,-18.44
2005-01-19 00:00,22.29,174.6,4.35,2.11,-22.19
2005-01-19 01:00,18.18,147.5,4.38,9.77,-15.34
2005-01-19 02:00,21.12,129.9,4.32,16.20,-13.55
2005-01-19 03:00,17.89,111.3,4.22,16.67,-6.49
2005-01-19 04:00,14.96,104.2,4.22,14.50,-3.68
2005-01-19 05:00,7.33,109.2,4.19,6.93,-2.41
2005-01-19 06:00,6.75,142.2,4.09,4.13,-5.33
2005-01-19 07:00,7.33,124.6,4.15,6.03,-4.17
2005-01-19 08:00,7.92,159.8,4.06,2.73,-7.43
2005-01-19 09:00,9.39,161.2,3.99,3.02,-8.89
2005-01-19 10:00,9.39,186.2,3.99,-1.01,-9.33
2005-01-19 11:00,3.81,179.1,3.96,0.06,-3.81
2005-01-19 12:00,18.77,137.6,4.45,12.65,-13.87
2005-01-19 13:00,21.70,124.6,4.45,17.86,-12.34
2005-01-19 14:00,22.00,116.6,4.41,19.68,-9.83
2005-01-19 15:00,18.18,104.2,4.41,17.63,-4.48
2005-01-19 16:00,24.64,106.7,4.35,23.60,-7.08
2005-01-19 17:00,18.77,105.7,4.38,18.07,-5.06
2005-01-19 18:00,18.18,94.4,4.38,18.13,-1.40
2005-01-19 19:00,15.54,80.7,4.35,15.34,2.51
2005-01-19 20:00,14.08,64.5,4.28,12.71,6.06
2005-01-19 21:00,11.44,65.9,4.32,10.44,4.67
2005-01-19 22:00,5.87,95.1,4.28,5.84,-0.52
2005-01-19 23:00,10.56,65.2,4.32,9.59,4.43
2005-01-20 00:00,18.48,69.8,4.32,17.34,6.38
2005-01-20 01:00,14.08,59.6,4.28,12.14,7.13
2005-01-20 02:00,19.94,52.9,4.25,15.91,12.03
2005-01-20 03:00,28.16,39.6,4.32,17.93,21.71
2005-01-20 04:00,29.33,61.0,4.28,25.65,14.22
2005-01-20 05:00,26.69,75.4,4.28,25.83,6.72
2005-01-20 06:00,24.05,90.5,4.25,24.05,-0.22
2005-01-20 07:00,15.84,106.7,4.25,15.17,-4.55
2005-01-20 08:00,12.61,123.6,4.25,10.51,-6.98
2005-01-20 09:00,9.68,151.7,4.22,4.59,-8.52
2005-01-20 10:00,14.96,179.5,4.22,0.13,-14.96
2005-01-20 11:00,17.60,163.7,4.19,4.95,-16.89
2005-01-20 12:00,23.46,162.6,4.19,7.01,-22.39
2005-01-20 13:00,17.01,148.2,4.15,8.96,-14.46
2005-01-20 14:00,19.94,150.3,4.19,9.88,-17.33
2005-01-20 15:00,18.48,144.0,4.22,10.87,-14.94
2005-01-20 16:00,14.66,133.8,4.22,10.59,-10.15
2005-01-20 17:00,19.06,121.8,4.25,16.20,-10.05
2005-01-20 18:00,15.84,117.6,4.28,14.03,-7.34
2005-01-20 19:00,9.39,129.6,4.32,7.24,-5.98
2005-01-20 20:00,17.30,136.6,4.32,11.89,-12.57
2005-01-20 21:00,14.66,131.7,4.32,10.95,-9.75
2005-01-20 22:00,16.72,165.1,4.19,4.31,-16.15
2005-01-20 23:00,15.54,160.9,4.15,5.10,-14.69
2005-01-21 00:00,23.76,184.1,4.09,-1.68,-23.70
2005-01-21 01:00,20.53,161.9,4.09,6.38,-19.52
2005-01-21 02:00,25.81,152.4,4.06,11.95,-22.88
2005-01-21 03:00,18.77,147.8,4.09,9.99,-15.89
2005-01-21 04:00,24.93,148.9,3.99,12.88,-21.35
2005-01-21 05:00,19.94,137.3,3.96,13.53,-14.66
2005-01-21 06:00,15.84,152.4,3.99,7.33,-14.04
2005-01-21 07:00,16.42,154.9,3.99,6.97,-14.87
2005-01-21 08:00,11.73,177.0,4.06,0.61,-11.72
2005-01-21 09:00,16.72,182.7,4.02,-0.77,-16.70
2005-01-21 10:00,19.94,175.6,4.02,1.52,-19.89
2005-01-21 11:00,21.41,168.9,4.09,4.11,-21.01
2005-01-21 12:00,26.40,187.2,4.06,-3.32,-26.19
2005-01-21 13:00,20.82,159.4,4.06,7.31,-19.50
2005-01-21 14:00,20.82,170.3,4.06,3.49,-20.53
2005-01-21 15:00,22.88,145.7,4.09,12.88,-18.91
2005-01-21 16:00,15.84,137.3,4.09,10.74,-11.64
2005-01-21 17:00,16.13,129.6,4.02,12.44,-10.27
2005-01-21 18:00,13.20,125.3,4.06,10.77,-7.63
2005-01-21 19:00,10.56,133.1,4.06,7.71,-7.21
2005-01-21 20:00,7.33,134.8,4.02,5.20,-5.17
2005-01-21 21:00,4.99,174.2,4.02,0.50,-4.96
2005-01-21 22:00,16.42,161.2,3.99,5.29,-15.55
2005-01-21 23:00,22.58,192.1,4.06,-4.75,-22.08
2005-01-22 00:00,22.29,162.3,3.99,6.79,-21.23
2005-01-22 01:00,22.88,195.0,4.06,-5.91,-22.10
2005-01-22 02:00,21.12,161.9,4.02,6.56,-20.07
2005-01-22 03:00,19.65,145.0,4.02,11.26,-16.10
2005-01-22 04:00,19.94,132.0,4.06,14.82,-13.35
2005-01-22 05:00,23.76,118.0,4.02,20.98,-11.14
2005-01-22 06:00,18.48,103.5,4.32,17.96,-4.33
2005-01-22 07:00,16.42,119.4,4.22,14.31,-8.05
2005-01-22 08:00,13.49,129.6,4.25,10.40,-8.59
2005-01-22 09:00,6.16,162.6,4.28,1.84,-5.88
2005-01-22 10:00,5.87,179.1,4.25,0.09,-5.87
2005-01-22 11:00,7.04,163.7,4.28,1.98,-6.76
2005-01-22 12:00,9.39,166.8,4.28,2.14,-9.14
2005-01-22 13:00,12.32,157.7,4.32,4.68,-11.40
2005-01-22 14:00,12.61,139.1,4.32,8.26,-9.53
2005-01-22 15:00,18.18,134.8,4.35,12.90,-12.82
2005-01-22 16:00,17.01,118.7,4.32,14.93,-8.16
2005-01-22 17:00,19.06,105.0,4.25,18.42,-4.92
2005-01-22 18:00,21.12,95.8,4.28,21.01,-2.14
2005-01-22 19:00,18.48,94.1,4.12,18.43,-1.31
2005-01-22 20:00,15.54,92.6,4.09,15.53,-0.72
2005-01-22 21:00,9.09,103.9,4.06,8.83,-2.18
2005-01-22 22:00,6.45,109.2,4.09,6.09,-2.12
2005-01-22 23:00,4.11,216.8,4.09,-2.46,-3.29
2005-01-23 00:00,1.17,208.7,4.06,-0.56,-1.03
2005-01-23 01:00,9.09,208.7,4.06,-4.36,-7.98
2005-01-23 02:00,14.96,200.2,4.06,-5.17,-14.04
2005-01-23 03:00,2.93,10.7,4.12,0.55,2.88
2005-01-23 04:00,8.80,224.8,4.19,-6.21,-6.24
2005-01-23 05:00,7.33,0.5,4.15,0.07,7.33
2005-01-23 06:00,8.21,157.3,4.19,3.16,-7.58
2005-01-23 07:00,4.11,224.8,4.22,-2.90,-2.91
2005-01-23 08:00,12.03,183.0,4.28,-0.63,-12.01
2005-01-23 09:00,11.73,192.9,4.32,-2.61,-11.44
2005-01-23 10:00,19.06,232.6,4.35,-15.14,-11.58
2005-01-23 11:00,31.38,228.0,4.35,-23.33,-21.00
2005-01-23 12:00,30.80,186.5,4.35,-3.50,-30.60
2005-01-23 13:00,42.82,215.7,4.32,-24.99,-34.77
2005-01-23 14:00,15.25,213.9,4.25,-8.52,-12.65
2005-01-23 15:00,38.72,205.5,4.22,-16.67,-34.94
2005-01-23 16:00,24.64,184.4,4.19,-1.90,-24.56
2005-01-23 17:00,43.70,189.3,4.02,-7.09,-43.12
2005-01-23 18:00,40.18,189.3,3.89,-6.52,-39.65
2005-01-23 19:00,23.76,168.6,3.96,4.70,-23.29
2005-01-23 20:00,34.32,190.0,3.99,-5.98,-33.79
2005-01-23 21:00,40.18,179.5,3.86,0.36,-40.18
2005-01-23 22:00,54.55,193.2,3.83,-12.46,-53.11
2005-01-23 23:00,39.30,170.7,3.96,6.35,-38.79
2005-01-24 00:00,41.06,167.9,4.45,8.62,-40.15
2005-01-24 01:00,45.17,186.2,4.54,-4.85,-44.91
2005-01-24 02:00,41.06,191.8,4.48,-8.39,-40.19
2005-01-24 03:00,47.81,206.2,4.02,-21.12,-42.89
2005-01-24 04:00,62.77,196.0,3.83,-17.32,-60.33
2005-01-24 05:00,56.61,193.2,3.76,-12.93,-55.11
2005-01-24 06:00,46.05,179.1,3.66,0.69,-46.04
2005-01-24 07:00,36.08,195.3,3.60,-9.53,-34.80
2005-01-24 08:00,29.33,178.1,3.53,0.98,-29.31
2005-01-24 09:00,40.18,180.9,3.43,-0.63,-40.18
2005-01-24 10:00,31.38,180.5,3.40,-0.30,-31.38
2005-01-24 11:00,36.37,203.4,3.07,-14.44,-33.38
2005-01-24 12:00,34.02,199.9,3.07,-11.57,-31.99
2005-01-24 13:00,27.57,195.7,3.14,-7.44,-26.55
2005-01-24 14:00,28.16,203.4,3.10,-11.18,-25.84
2005-01-24 15:00,21.12,198.1,3.07,-6.57,-20.07
2005-01-24 16:00,15.25,168.6,3.10,3.02,-14.95
2005-01-24 17:00,12.03,145.0,3.14,6.89,-9.85
2005-01-24 18:00,17.89,135.5,3.07,12.53,-12.77
2005-01-24 19:00,17.89,120.1,3.00,15.48,-8.96
2005-01-24 20:00,15.25,97.9,3.00,15.11,-2.10
2005-01-24 21:00,15.25,71.9,3.00,14.50,4.74
2005-01-24 22:00,27.28,83.5,3.63,27.10,3.09
2005-01-24 23:00,28.16,86.7,3.69,28.11,1.64
2005-01-25 00:00,21.41,80.3,3.83,21.11,3.59
2005-01-25 01:00,19.06,96.9,3.92,18.93,-2.28
2005-01-25 02:00,23.17,98.3,3.89,22.93,-3.33
2005-01-25 03:00,21.12,111.3,3.86,19.68,-7.66
2005-01-25 04:00,27.86,109.9,3.89,26.20,-9.47
2005-01-25 05:00,25.22,102.1,3.96,24.66,-5.30
2005-01-25 06:00,20.53,102.8,4.02,20.02,-4.56
2005-01-25 07:00,29.33,101.1,4.02,28.78,-5.64
2005-01-25 08:00,24.34,83.5,4.06,24.19,2.75
2005-01-25 09:00,23.76,99.3,4.06,23.44,-3.85
2005-01-25 10:00,26.10,90.5,4.06,26.10,-0.24
2005-01-25 11:00,22.58,104.2,4.02,21.89,-5.56
2005-01-25 12:00,11.44,118.7,4.06,10.04,-5.49
2005-01-25 13:00,14.96,108.8,3.99,14.16,-4.82
2005-01-25 14:00,24.93,161.6,3.99,7.89,-23.65
2005-01-25 15:00,22.29,154.9,3.99,9.46,-20.18
2005-01-25 16:00,21.12,141.2,3.99,13.24,-16.45
2005-01-25 17:00,24.93,125.0,3.96,20.42,-14.30
2005-01-25 18:00,21.41,110.9,3.92,20.00,-7.65
2005-01-25 19:00,27.57,88.8,3.89,27.56,0.59
2005-01-25 20:00,30.21,93.0,3.89,30.17,-1.58
2005-01-25 21:00,26.10,99.0,3.89,25.78,-4.07
2005-01-25 22:00,20.53,98.6,3.96,20.30,-3.08
2005-01-25 23:00,14.66,67.3,3.99,13.53,5.65
2005-01-26 00:00,7.63,85.6,3.99,7.60,0.58
2005-01-26 01:00,6.75,76.5,3.96,6.56,1.58
2005-01-26 02:00,5.57,242.4,3.96,-4.94,-2.58
2005-01-26 03:00,8.80,209.4,3.92,-4.32,-7.67
2005-01-26 04:00,6.16,206.9,3.96,-2.79,-5.49
2005-01-26 05:00,6.16,106.4,3.96,5.91,-1.73
2005-01-26 06:00,9.68,81.0,3.92,9.56,1.51
2005-01-26 07:00,17.01,76.1,3.99,16.51,4.08
2005-01-26 08:00,25.22,68.7,4.02,23.51,9.15
2005-01-26 09:00,25.22,64.5,3.96,22.77,10.85
2005-01-26 10:00,23.17,64.2,4.02,20.85,10.10
2005-01-26 11:00,22.00,59.9,3.99,19.04,11.02
2005-01-26 12:00,17.30,65.6,3.99,15.76,7.16
2005-01-26 13:00,12.32,44.8,3.99,8.68,8.74
2005-01-26 14:00,8.21,35.0,3.99,4.71,6.73
2005-01-26 15:00,2.64,48.7,3.96,1.98,1.74
2005-01-26 16:00,8.51,95.1,3.96,8.47,-0.76
2005-01-26 17:00,13.20,74.4,3.96,12.71,3.56
2005-01-26 18:00,9.97,39.6,3.92,6.35,7.69
2005-01-26 19:00,9.39,87.4,3.92,9.38,0.43
2005-01-26 20:00,24.05,109.5,3.89,22.67,-8.04
2005-01-26 21:00,15.54,107.8,3.92,14.80,-4.74
2005-01-26 22:00,17.30,125.7,3.96,14.05,-10.10
2005-01-26 23:00,15.25,168.6,3.96,3.02,-14.95
2005-01-27 00:00,22.58,178.4,3.96,0.62,-22.58
2005-01-27 01:00,22.00,206.6,3.96,-9.84,-19.68
2005-01-27 02:00,19.94,197.1,3.99,-5.85,-19.07